Time,TemperatureF,DewpointF,PressureIn,WindDirection,WindDirectionDegrees,WindSpeedMPH,WindSpeedGustMPH,Humidity,HourlyPrecipIn,Conditions,Clouds,dailyrainin,SoftwareType,DateUTC
2013-06-29 02:12:00,65.0,63.0,-100.00,WSW,240,0.0,3.0,93,3.39,,,-99.99,,2013-06-29 06:12:00,
2013-06-29 02:33:00,65.0,63.0,-100.00,West,275,2.0,6.0,94,0.00,,,-99.99,,2013-06-29 06:33:00,
2013-06-29 02:43:00,65.0,63.0,-100.00,West,260,1.0,4.0,94,0.00,,,-99.99,,2013-06-29 06:43:00,
2013-06-29 02:53:00,65.0,63.0,-100.00,WSW,240,1.0,3.0,94,0.00,,,-99.99,,2013-06-29 06:53:00,
2013-06-29 03:12:00,65.0,63.0,-100.00,WSW,255,1.0,3.0,94,0.00,,,-99.99,,2013-06-29 07:12:00,
2013-06-29 03:22:00,65.0,63.0,-100.00,West,275,1.0,2.0,94,0.00,,,-99.99,,2013-06-29 07:22:00,
2013-06-29 04:12:00,64.0,63.0,-100.00,West,260,1.0,3.0,94,1.10,,,-99.99,,2013-06-29 08:12:00,
2013-06-29 05:12:00,64.0,62.0,-100.00,WSW,245,0.0,4.0,94,1.10,,,-99.99,,2013-06-29 09:12:00,
2013-06-29 05:33:00,64.0,62.0,-100.00,NNE,25,1.0,3.0,94,0.00,,,-99.99,,2013-06-29 09:33:00,
2013-06-29 06:22:00,64.0,62.0,-100.00,ENE,65,1.0,3.0,94,0.00,,,-99.99,,2013-06-29 10:22:00,
2013-06-29 07:23:00,64.0,62.0,-100.00,WNW,290,1.0,4.0,94,0.00,,,-99.99,,2013-06-29 11:23:00,
2013-06-29 07:33:00,64.0,62.0,-100.00,West,265,1.0,4.0,94,1.69,,,-99.99,,2013-06-29 11:33:00,
2013-06-29 08:02:00,64.0,62.0,-100.00,West,280,1.0,4.0,94,0.00,,,-99.99,,2013-06-29 12:02:00,
2013-06-29 08:12:00,64.0,63.0,-100.00,NE,45,1.0,4.0,94,0.00,,,-99.99,,2013-06-29 12:12:00,
2013-06-29 08:22:00,65.0,63.0,-100.00,WSW,245,1.0,6.0,94,0.00,,,-99.99,,2013-06-29 12:22:00,
2013-06-29 08:34:00,65.0,63.0,-100.00,NNW,335,1.0,5.0,94,0.00,,,-99.99,,2013-06-29 12:34:00,
2013-06-29 08:53:00,65.0,63.0,-100.00,West,260,1.0,2.0,93,0.00,,,-99.99,,2013-06-29 12:53:00,
2013-06-29 09:53:00,66.0,63.0,-100.00,West,275,0.0,5.0,92,0.00,,,-99.99,,2013-06-29 13:53:00,
2013-06-29 10:02:00,66.0,63.0,-100.00,West,270,1.0,3.0,92,0.00,,,-99.99,,2013-06-29 14:02:00,
2013-06-29 10:12:00,66.0,64.0,-100.00,ENE,60,1.0,4.0,92,0.00,,,-99.99,,2013-06-29 14:12:00,
2013-06-29 10:23:00,67.0,64.0,-100.00,NNE,30,1.0,3.0,91,0.00,,,-99.99,,2013-06-29 14:23:00,
2013-06-29 10:34:00,67.0,64.0,-100.00,WSW,255,1.0,6.0,90,0.00,,,-99.99,,2013-06-29 14:34:00,
2013-06-29 10:53:00,67.0,64.0,-100.00,NNE,25,1.0,6.0,87,0.00,,,-99.99,,2013-06-29 14:53:00,
2013-06-29 11:02:00,67.0,63.0,-100.00,NE,40,1.0,4.0,86,0.00,,,-99.99,,2013-06-29 15:02:00,
2013-06-29 11:22:00,68.0,64.0,-100.00,East,85,1.0,5.0,86,0.00,,,-99.99,,2013-06-29 15:22:00,